Tallahassee, FL

11:49 AM EST on February 06, 2016 (GMT -0500)
Tallahassee Regional

Weather History for KTLH - May, 2013

Change the Weather History Date:

Tuesday, May 21, 2013

  Actual Average Record
Temperature  
Mean Temperature 80 °F 76 °F  
Max Temperature 92 °F 88 °F 98 °F (1938)
Min Temperature 67 °F 63 °F 48 °F (2002)
Degree Days  
Heating Degree Days 0    
Month to date heating degree days 14  
Since 1 July heating degree days 1332  
Cooling Degree Days 15    
Month to date cooling degree days 123  
Year to date cooling degree days 320  
Growing Degree Days 28 (Base 50)    
Moisture  
Dew Point 65 °F    
Average Humidity 63    
Maximum Humidity 90    
Minimum Humidity 36    
Precipitation  
Precipitation 0.00 in 0.12 in 1.75 in (1942)
Month to date precipitation 0.36 2.01  
Year to date precipitation 22.32 20.20  
Sea Level Pressure  
Sea Level Pressure 30.00 in    
Wind  
Wind Speed 4 mph (SSE)    
Max Wind Speed 20 mph    
Max Gust Speed 24 mph    
Visibility 10 miles    
Events Fog    
T = Trace of Precipitation, MM = Missing Value Source: NWS Daily Summary

Daily Weather History Graph

Daily Weather History Graph

Search for Another Location

Airport or City:

Trip Planner

Search our weather history database for the weather conditions in past years. The results will help you decide how hot, cold, wet, or windy it might be!

Date:

Astronomy

May. 21, 2013 Rise Set
Actual Time 6:39 AM EDT 8:28 PM EDT
Civil Twilight 6:13 AM EDT 8:55 PM EDT
Nautical Twilight 5:40 AM EDT 9:27 PM EDT
Astronomical Twilight 5:07 AM EDT 10:01 PM EDT
Moon 4:54 PM EDT (5/21) 3:51 AM EDT (5/21)
Length of Visible Light 14h 42m
Length of Day
13h 48m
Waxing Gibbous, 84% of the Moon is Illuminated
May 21
Waxing Gibbous
May 25
Full
May 31
Last Quarter
Jun 8
New
Jun 16
First Quarter

Hourly Weather History & Observations

Time (EDT) Temp. Heat Index Dew Point Humidity Pressure Visibility Wind Dir Wind Speed Gust Speed Precip Events Conditions
12:53 AM 75.0 °F - 69.1 °F 82% 30.02 in 10.0 mi Calm Calm - N/A   Clear
1:53 AM 73.0 °F - 68.0 °F 84% 30.01 in 10.0 mi Calm Calm - N/A   Clear
2:53 AM 72.0 °F - 68.0 °F 87% 29.99 in 10.0 mi Calm Calm - N/A   Clear
3:53 AM 71.1 °F - 66.9 °F 87% 29.97 in 10.0 mi Calm Calm - N/A   Clear
4:53 AM 69.1 °F - 66.0 °F 90% 29.99 in 10.0 mi Calm Calm - N/A   Clear
5:53 AM 68.0 °F - 64.0 °F 87% 30.00 in 10.0 mi Calm Calm - N/A Fog Patches of Fog
6:53 AM 68.0 °F - 64.0 °F 87% 30.02 in 7.0 mi Calm Calm - N/A Fog Patches of Fog
7:53 AM 71.1 °F - 66.0 °F 84% 30.04 in 10.0 mi Calm Calm - N/A   Partly Cloudy
8:53 AM 75.0 °F - 66.9 °F 76% 30.05 in 10.0 mi Variable 3.5 mph - N/A   Partly Cloudy
9:12 AM 77.0 °F - 66.2 °F 69% 30.05 in 10.0 mi Calm Calm - N/A   Mostly Cloudy
9:22 AM 78.8 °F - 66.2 °F 65% 30.05 in 10.0 mi East 3.5 mph - N/A   Scattered Clouds
9:53 AM 80.1 °F 82.3 °F 66.9 °F 64% 30.04 in 10.0 mi ENE 4.6 mph - N/A   Partly Cloudy
10:53 AM 82.9 °F 85.0 °F 66.0 °F 56% 30.04 in 10.0 mi East 5.8 mph - N/A   Scattered Clouds
11:07 AM 82.4 °F 84.6 °F 66.2 °F 58% 30.04 in 10.0 mi South 4.6 mph - N/A   Mostly Cloudy
11:20 AM 82.4 °F 84.6 °F 66.2 °F 58% 30.04 in 10.0 mi Calm Calm - N/A   Scattered Clouds
11:53 AM 84.9 °F 86.1 °F 64.0 °F 49% 30.04 in 10.0 mi Calm Calm - N/A   Scattered Clouds
12:53 PM 88.0 °F 89.3 °F 64.0 °F 45% 30.02 in 10.0 mi SSW 9.2 mph - N/A   Partly Cloudy
1:53 PM 89.1 °F 89.0 °F 61.0 °F 39% 29.99 in 10.0 mi Variable 3.5 mph - N/A   Mostly Cloudy
2:53 PM 90.0 °F 90.3 °F 62.1 °F 39% 29.98 in 10.0 mi SSW 5.8 mph - N/A   Mostly Cloudy
3:53 PM 89.1 °F 89.0 °F 61.0 °F 39% 29.96 in 10.0 mi Calm Calm - N/A   Scattered Clouds
4:53 PM 91.0 °F 90.5 °F 60.1 °F 35% 29.94 in 10.0 mi Variable 5.8 mph - N/A   Mostly Cloudy
5:53 PM 89.1 °F 90.0 °F 63.0 °F 42% 29.92 in 10.0 mi SSW 6.9 mph - N/A   Mostly Cloudy
6:53 PM 88.0 °F 88.7 °F 63.0 °F 43% 29.92 in 10.0 mi SSW 8.1 mph - N/A   Partly Cloudy
7:53 PM 86.0 °F 87.3 °F 64.0 °F 48% 29.92 in 10.0 mi SSW 4.6 mph - N/A   Partly Cloudy
8:53 PM 80.1 °F 81.5 °F 63.0 °F 56% 29.94 in 10.0 mi SSE 9.2 mph - N/A   Partly Cloudy
9:53 PM 77.0 °F - 63.0 °F 62% 29.96 in 10.0 mi SE 6.9 mph - N/A   Partly Cloudy
10:53 PM 75.0 °F - 66.0 °F 73% 29.99 in 10.0 mi East 10.4 mph - N/A   Clear
11:53 PM 73.9 °F - 63.0 °F 68% 30.01 in 10.0 mi East 5.8 mph - N/A   Partly Cloudy